STARLINK-11505, 62469

Orbit data source: Space-Track

STARLINK-11505, 62469 is a payload satellite owned by SpaceX/Seattle (US) in LEO that was launched on Tue, 31 Dec 2024 UTC via an FALCON 9 launch vehicle from the Air Force Eastern Test Range (AFETR). Payload-class satellites include a variety of spacecraft equipped with specific instruments for various scientific and technological missions. These include communications satellites like Starlink; space stations such as the ISS; scientific satellites like the Hubble; Earth observation satellites from companies like Planet Labs, Umbra, and HawkEye 360; GPS; miniature CubeSats for education and research; and military/defense satellites.

Loading next visibility...
Identifier
62469, 2024-254H
Orbit
LEO
Country
Flag of USUS
Related business
Manufacturer
SpaceX/Seattle
Mission
Operational Commercial Communications
Bus & Motor
STARLINK V2MD, Unknown motor
Mass
960 kg wet, ~910 kg dry
Launch date (UTC)
2024-12-31 (2 years ago)
Launch vehicle
FALCON 9
Launch site
Air Force Eastern Test Range (AFETR)
Object type
Payload
Rocket body
Debris
Shape & HBR
Box + 2 Pan, 18.1 m
Radar Cross Section
36.964 m², Large (>1 m²)

Expand to show TLE details & history
Last TLE update: 12 hours ago

TLE from 12 hours ago
0 STARLINK-11505
1 62469U 24254H   26257.98270146  .00260736  00000-0  19698-2 0  9992
2 62469  42.9995 161.8477 0002388 286.6541  73.4064 15.70870695 99161
Epoch: 2026-09-14T23:35Z
TLE epoch observation values (Epoch: 2026-09-14T23:35:05.406Z)
Latitude
-0.00003°
Longitude
174.11996°
Altitude
355.72 km
Speed
7.698 km/s
True Right ascension
10h 47m 23s
True Declination
0° 00' 00"
Sunlit
Object was in daylight at epoch
Visualization orbit readout
Latitude
Unknown
Longitude
Unknown
Altitude
Unknown
Speed
Unknown
Apparent Right ascension
Unknown
Apparent Declination
Unknown
Sunlit
N/A
Visualization observer readout
Local Sidereal Time
03:45:04
Azimuth
Unknown
Elevation
Unknown
Doppler factor
Unknown
Orbital elements
Apogee altitude
359.998 km
Perigee altitude
356.78 km
Semi-major axis
6,736.526 km
Eccentricity
0.00024
Inclination
42.9995°
RAAN
161.8477°
Arg. of periapsis
286.6541°
True anomaly
73.43263°
Mean anomaly
73.4064°
Eccentric anomaly
73.41951°
Mean motion
3.92545 °/min
Orbital period
91.71 mins
BSTAR
0.0019698
Loading maneuver chart data...
Computing Atmospheric mass density...
Loading historical data...
Loading historical data...
Loading historical data...
Loading historical data...
Loading historical data...
Loading historical data...
Loading historical data...

Documentation

Showing up to 5 results
|